Tracking 30703 objects as of 13-Jun-2025
HD Live streaming from Space Station
objects crossing your sky now

ATLAS 5 CENTAUR DEB

Track ATLAS 5 CENTAUR DEB now!


NORAD ID: 44642
Int'l Code: 2018-079C
Perigee: 8,602.6 km
Apogee: 34,822.4 km
Inclination: 12.8 °
Period: 780.6 minutes
Semi major axis: 28083 km
RCS: Unknown
Launch date: October 17, 2018
Source: United States (US)
Launch site: AIR FORCE EASTERN TEST RANGE (AFETR)

Note: This is SATELLITE DEBRIS
Your satellite tracking list
Your tracking list is empty




NASA's NSSDC Master Catalog

Two Line Element Set (TLE):
1 44642U 18079C   25162.38592733 -.00000106  00000-0  00000+0 0  9998
2 44642  12.8083  60.2984 4668195 270.3925  38.2091  1.84470366 44808
Source of the keplerian elements: AFSPC